TimeCST,TemperatureF,Dew PointF,Humidity,Sea Level PressureIn,VisibilityMPH,Wind Direction,Wind SpeedMPH,Gust SpeedMPH,PrecipitationIn,Events,Conditions,WindDirDegrees,DateUTC
12:53 AM,36.0,30.9,82,30.32,10.0,Calm,Calm,-,N/A,,Clear,0,2012-11-14 06:53:00
1:53 AM,34.0,30.9,89,30.31,10.0,Calm,Calm,-,N/A,,Clear,0,2012-11-14 07:53:00
2:53 AM,35.1,30.9,85,30.32,10.0,Calm,Calm,-,N/A,,Clear,0,2012-11-14 08:53:00
3:53 AM,35.1,30.9,85,30.31,10.0,Calm,Calm,-,N/A,,Clear,0,2012-11-14 09:53:00
4:53 AM,34.0,30.9,89,30.31,10.0,Calm,Calm,-,N/A,,Clear,0,2012-11-14 10:53:00
5:53 AM,36.0,32.0,86,30.33,10.0,Calm,Calm,-,N/A,,Clear,0,2012-11-14 11:53:00
6:53 AM,37.0,33.1,86,30.34,10.0,NW,3.5,-,N/A,,Clear,310,2012-11-14 12:53:00
7:53 AM,39.0,35.1,86,30.35,10.0,Calm,Calm,-,N/A,,Clear,0,2012-11-14 13:53:00
8:53 AM,46.9,36.0,66,30.35,10.0,ENE,3.5,-,N/A,,Clear,60,2012-11-14 14:53:00
9:53 AM,51.1,36.0,56,30.37,10.0,Calm,Calm,-,N/A,,Partly Cloudy,0,2012-11-14 15:53:00
10:53 AM,55.0,39.0,55,30.32,10.0,Variable,5.8,-,N/A,,Clear,0,2012-11-14 16:53:00
11:53 AM,55.9,39.9,55,30.28,10.0,Calm,Calm,-,N/A,,Clear,0,2012-11-14 17:53:00
12:53 PM,59.0,41.0,51,30.27,10.0,Calm,Calm,-,N/A,,Clear,0,2012-11-14 18:53:00
1:53 PM,61.0,41.0,48,30.25,10.0,North,5.8,-,N/A,,Clear,10,2012-11-14 19:53:00
2:53 PM,61.0,41.0,48,30.25,10.0,Calm,Calm,-,N/A,,Partly Cloudy,0,2012-11-14 20:53:00
3:53 PM,62.1,42.1,48,30.26,10.0,North,5.8,-,N/A,,Scattered Clouds,10,2012-11-14 21:53:00
4:53 PM,59.0,42.1,53,30.27,10.0,North,3.5,-,N/A,,Overcast,360,2012-11-14 22:53:00
5:53 PM,54.0,42.1,64,30.27,10.0,North,4.6,-,N/A,,Scattered Clouds,10,2012-11-14 23:53:00
6:53 PM,51.1,44.1,77,30.29,10.0,Calm,Calm,-,N/A,,Mostly Cloudy,0,2012-11-15 00:53:00
7:53 PM,46.9,43.0,86,30.29,10.0,ENE,3.5,-,N/A,,Clear,70,2012-11-15 01:53:00
8:53 PM,44.1,41.0,89,30.29,9.0,Calm,Calm,-,N/A,,Clear,0,2012-11-15 02:53:00
9:53 PM,42.1,41.0,96,30.28,8.0,NNE,3.5,-,N/A,,Clear,30,2012-11-15 03:53:00
10:53 PM,42.1,39.0,89,30.27,7.0,Calm,Calm,-,N/A,,Clear,0,2012-11-15 04:53:00
11:53 PM,39.9,39.0,97,30.27,8.0,Calm,Calm,-,N/A,,Clear,0,2012-11-15 05:53:00